Station LWSD1 - 8557380 - Lewes, DE Image indicating link to RSS feed of recent meteorological observations for station LWSD1


Conditions at LWSD1 as of
(2:00 am EDT)
0600 GMT on 04/15/2024:
     

Click on the graph icon in the table below to see a time series plot of the last five days of that observation.

5-day plot - Wind Direction Wind Direction (WDIR):SSW ( 210 deg true )
5-day plot - Wind Speed Wind Speed (WSPD): 4.1 kts
5-day plot - Wind Gust Wind Gust (GST): 7.0 kts
5-day plot - Atmospheric Pressure Atmospheric Pressure (PRES):29.81 in
5-day plot - Pressure Tendency Pressure Tendency (PTDY):+0.04 in ( Rising )
5-day plot - Air Temperature Air Temperature (ATMP): 67.3 °F
5-day plot - Water Temperature Water Temperature (WTMP): 54.1 °F
5-day plot - Wind Speed at 10 Meters Wind Speed at 10 meters (WSPD10M): 3.9 kts
5-day plot - Wind Speed at 20 Meters Wind Speed at 20 meters (WSPD20M): 5.8 kts
5-day plot -  Wind Speed, Wind Gust and Atmospheric Pressure Combined plot of Wind Speed, Gust, and Air Pressure
NOS Water Level Observation Network Water Level
Previous observations
TIME
(EDT)
5-day plot - Wind Direction
WDIR
 
5-day plot - Wind Speed
WSPD
kts
5-day plot - Wind Gust
GST
kts
5-day plot - Wave Height
WVHT
ft
5-day plot - Dominant Wave Period
DPD
sec
5-day plot - Average Wave Period
APD
sec
5-day plot - Mean Wave Direction
MWD
 
5-day plot - Atmospheric Pressure
PRES
in
5-day plot - Pressure Tendency
PTDY
in
5-day plot - Air Temperature
ATMP
°F
5-day plot - Water Temperature
WTMP
°F
5-day plot - Dew Point
DEWP
°F
5-day plot - Salinity
SAL
psu
5-day plot - Visibility
VIS
nmi
5-day plot - Tide (above MLLW)
TIDE
ft
2024-04-15 01:54 amSSW 6.0 8.0----29.81- 67.1 54.1----
2024-04-15 01:48 am SW 5.1 6.0----29.82- 68.5 54.1----
2024-04-15 01:42 am SW 4.1 6.0----29.81- 68.5 54.1----
2024-04-15 01:36 am SW 5.1 7.0----29.81- 69.1 54.1----
2024-04-15 01:30 amWSW 4.1 4.1----29.82- 68.5 54.3----
2024-04-15 01:24 am SW 2.9 4.1----29.82- 68.0 54.3----
2024-04-15 01:18 amWSW 4.1 4.1----29.82- 68.2 54.3----
2024-04-15 01:12 amWSW 4.1 4.1----29.81- 68.2 54.3----
2024-04-15 01:06 am SW 2.9 4.1----29.82- 66.6 54.3----
2024-04-15 01:00 am W 1.9 4.1----29.82+0.04 66.4 54.3----
2024-04-15 12:54 am W 5.1 6.0----29.82- 65.5 54.3----
2024-04-15 12:48 am W 5.1 7.0----29.82- 64.2 54.3----
2024-04-15 12:42 am W 5.1 9.9----29.82- 63.9 54.3----
2024-04-15 12:36 amNNW 8.9 11.1----29.83- 65.3 54.1----
2024-04-15 12:30 amNNW 9.9 11.1----29.83- 66.4 54.1----
2024-04-15 12:24 am N 9.9 15.0----29.82- 67.5 54.1----
2024-04-15 12:18 am N 8.0 11.1----29.83- 64.8 54.1----
2024-04-15 12:12 am W 1.9 13.0----29.82- 65.7 54.1----
2024-04-15 12:06 am N 12.0 14.0----29.82- 64.9 54.1----
2024-04-15 12:00 amNNW 6.0 8.0----29.82+0.07 65.5 54.1----
2024-04-14 11:54 pm N 8.9 15.0----29.81- 64.2 54.1----
2024-04-14 11:48 pm N 14.0 17.1----29.83- 64.2 54.1----
2024-04-14 11:42 pmWSW 6.0 8.9----29.80- 69.4 54.1----
2024-04-14 11:36 pmNNW 11.1 22.0----29.80- 67.5 54.1----
2024-04-14 11:30 pm N 15.9 19.0----29.81- 64.8 54.1----
2024-04-14 11:24 pmWSW 7.0 15.0----29.79- 70.3 54.1----
2024-04-14 11:18 pm SW 8.0 13.0----29.78- 70.3 54.1----
2024-04-14 11:12 pm SW 12.0 15.9----29.78- 70.5 54.1----
2024-04-14 11:06 pm SW 8.9 14.0----29.77- 70.3 54.1----
2024-04-14 11:00 pm SW 8.9 15.0----29.77+0.05 70.7 54.1----
2024-04-14 10:54 pm SW 9.9 15.0----29.77- 70.7 54.1----
2024-04-14 10:48 pm SW 8.9 19.0----29.77- 70.5 54.1----
2024-04-14 10:42 pm SW 9.9 19.0----29.77- 70.7 54.1----
2024-04-14 10:36 pm SW 8.9 15.9----29.77- 70.7 54.1----
2024-04-14 10:30 pm SW 9.9 15.9----29.77- 70.7 54.1----
2024-04-14 10:24 pm SW 9.9 15.0----29.77- 70.7 54.1----
2024-04-14 10:18 pm SW 9.9 18.1----29.77- 70.7 54.1----
2024-04-14 10:12 pm SW 11.1 18.1----29.77- 70.7 54.1----
2024-04-14 10:06 pm SW 11.1 19.0----29.77- 70.9 54.1----
2024-04-14 10:00 pm SW 11.1 19.0----29.78+0.04 70.7 54.1----
2024-04-14 09:54 pm SW 12.0 18.1----29.78- 70.7 54.1----
2024-04-14 09:48 pm SW 11.1 18.1----29.77- 70.7 54.1----
2024-04-14 09:42 pm SW 9.9 20.0----29.77- 70.7 54.1----
2024-04-14 09:36 pm SW 11.1 19.0----29.77- 70.5 54.1----
2024-04-14 09:30 pm SW 12.0 17.1----29.78- 70.3 54.1----
2024-04-14 09:24 pm SW 11.1 15.9----29.77- 69.4 54.1----
2024-04-14 09:18 pm SW 7.0 14.0----29.76- 68.9 54.1----
2024-04-14 09:12 pm SW 8.9 13.0----29.76- 68.4 54.1----
2024-04-14 09:06 pm SW 8.9 15.9----29.76- 68.2 54.1----
2024-04-14 09:00 pm SW 8.9 15.9----29.75-0.01 67.6 54.1----
2024-04-14 08:54 pm SW 7.0 14.0----29.74- 66.9 54.1----
2024-04-14 08:48 pmSSW 8.0 14.0----29.74-- 54.1----
2024-04-14 08:42 pm SW 8.9 15.0----29.73-- 54.1----
2024-04-14 08:36 pmSSW 9.9 17.1----29.73-- 54.1----
2024-04-14 08:30 pm-------29.72- 66.7 54.1----
2024-04-14 08:24 pm-------29.72- 66.7 54.1----
2024-04-14 08:18 pmSSW 7.0 17.1------ 66.9 54.1----
2024-04-14 08:12 pmSSW 8.0 20.0------ 67.1 54.1----
2024-04-14 08:06 pmSSW 8.9 13.0------ 67.1 54.1----
2024-04-14 08:00 pmSSW 11.1 15.9----29.72-0.06 67.3 54.1----
2024-04-14 07:54 pm SW 7.0 12.0----29.72- 67.5 54.1----
2024-04-14 07:48 pmSSW 7.0 15.0----29.72- 67.6 54.0----
2024-04-14 07:42 pmSSW 7.0 13.0----29.72- 67.8 54.0----
2024-04-14 07:36 pmSSW 8.0 13.0----29.72- 68.2 53.8----
2024-04-14 07:30 pmSSW 9.9 13.0----29.73- 68.4 53.8----
2024-04-14 07:24 pmSSW 9.9 15.9----29.73- 68.7 54.0----
2024-04-14 07:00 pmSSW 8.0 13.0----29.73-0.08- 53.8----
2024-04-14 06:54 pm SW 11.1 18.1----29.73-- 53.8----
2024-04-14 06:48 pm SW 12.0 21.0----29.74- 72.0 53.8----
2024-04-14 06:42 pm SW 8.9 22.0----29.74- 72.0 53.8----
2024-04-14 06:36 pmSSW 8.0 17.1----29.74- 72.5 53.8----
2024-04-14 06:30 pm SW 8.9 22.9----29.75- 72.5 53.8----
2024-04-14 06:24 pm SW 14.0 22.9----29.75- 72.7 53.8----
2024-04-14 06:18 pm SW 12.0 25.1----29.75- 72.9 53.8----
2024-04-14 06:12 pm SW 13.0 27.0----29.76- 72.5 53.8----
2024-04-14 06:06 pm SW 14.0 22.9----29.76- 72.5 53.8----
2024-04-14 06:00 pm SW 14.0 26.0----29.76-0.08 72.3 53.8----
2024-04-14 05:54 pm SW 15.0 25.1----29.76- 72.3 53.8----
2024-04-14 05:48 pm SW 15.0 25.1----29.76-- 53.8----
2024-04-14 05:42 pmSSW 15.0 25.1----29.76-- 53.8----
2024-04-14 05:36 pmSSW 15.9 26.0----29.77-- 53.8----
2024-04-14 05:30 pm SW 11.1 24.1----29.77-- 53.8----
2024-04-14 05:24 pm SW 18.1 28.0----29.77-- 53.8----
2024-04-14 05:18 pm SW 14.0 22.9----29.77- 73.8 53.8----
2024-04-14 05:12 pm SW 14.0 22.0----29.78- 73.9 53.8----
2024-04-14 05:06 pmSSW 11.1 19.0----29.78- 73.8 53.8----
2024-04-14 05:00 pmSSW 13.0 22.0----29.79-0.12 73.8 53.8----
2024-04-14 04:54 pmSSW 9.9 20.0----29.79- 73.8 54.0----
2024-04-14 04:48 pmSSW 15.9 26.0----29.79- 73.4 53.8----
2024-04-14 04:42 pm SW 9.9 20.0----29.79- 73.8 53.8----
2024-04-14 04:36 pmSSW 12.0 19.0----29.80- 73.6 53.8----
2024-04-14 04:30 pm SW 12.0 19.0----29.80- 73.4 53.8----
2024-04-14 04:24 pmSSW 12.0 24.1----29.80- 73.6 53.8----
2024-04-14 04:18 pm SW 11.1 25.1----29.80- 74.7 54.0----
2024-04-14 04:12 pm SW 14.0 22.9----29.80- 74.1 54.0----
2024-04-14 04:06 pmSSW 14.0 22.0----29.80- 74.3 54.0----
2024-04-14 04:00 pm SW 9.9 21.0----29.81-0.14 74.7 54.1----
2024-04-14 03:54 pm SW 13.0 22.9----29.81- 74.5 54.1----
2024-04-14 03:48 pm SW 18.1 25.1----29.82- 74.1 54.1----
2024-04-14 03:42 pm SW 12.0 26.0----29.82- 74.5 54.1----
2024-04-14 03:36 pm SW 15.0 25.1----29.82- 73.8 54.1----
2024-04-14 03:30 pm SW 14.0 26.0----29.82- 74.1 54.1----
2024-04-14 03:24 pm SW 15.0 21.0----29.82- 74.1 54.1----
2024-04-14 03:18 pm SW 14.0 24.1----29.82- 73.9 54.1----
2024-04-14 03:12 pm SW 13.0 24.1----29.83- 73.6 54.0----
2024-04-14 03:06 pm SW 13.0 22.9----29.83- 73.4 54.0----
2024-04-14 03:00 pm SW 15.0 24.1----29.84-0.14------
2024-04-14 02:54 pm SW 13.0 19.0----29.85-------
2024-04-14 02:48 pm SW 13.0 24.1----29.85- 73.0 54.0----
2024-04-14 02:42 pm SW 9.9 21.0----29.86- 73.2 54.0----
2024-04-14 02:36 pm SW 14.0 20.0----29.87- 72.9 54.0----
2024-04-14 02:30 pm SW 15.9 22.0----29.87- 72.3 54.1----
2024-04-14 02:24 pm SW 9.9 22.9----29.88- 73.0 54.0----
2024-04-14 02:18 pmSSW 13.0 22.0----29.88- 72.5 54.1----
2024-04-14 02:12 pm SW 8.0 22.0----29.89- 72.5 54.0----
2024-04-14 02:06 pmWSW 11.1 19.0----29.89- 72.3 54.0----
2024-04-14 02:00 pm SW 13.0 19.0----29.90-0.11 72.1 54.0----
2024-04-14 01:54 pmSSW 12.0 17.1----29.91- 71.8 54.0----
2024-04-14 01:48 pm SW 9.9 15.9----29.91- 71.8 54.0----
2024-04-14 01:42 pmSSW 8.9 17.1----29.91- 72.1 54.0----
2024-04-14 01:36 pm SW 9.9 21.0----29.92- 71.4 54.0----
2024-04-14 01:30 pmWSW 12.0 17.1----29.93- 71.4 54.0----
2024-04-14 01:24 pm SW 14.0 18.1----29.94- 71.1 54.0----
2024-04-14 01:18 pmWSW 11.1 19.0----29.94- 71.2 54.0----
2024-04-14 01:12 pmWSW 12.0 18.1----29.95- 71.4 54.0----
2024-04-14 01:06 pmWSW 13.0 20.0----29.95- 70.9 54.0----
2024-04-14 01:00 pmWSW 13.0 15.9----29.95-0.08 70.0 54.0----
2024-04-14 12:54 pmWSW 14.0 20.0----29.96- 70.2 53.8----
2024-04-14 12:48 pmWSW 9.9 18.1----29.96-- 53.6----
2024-04-14 12:42 pmWSW 13.0 20.0----29.96-- 53.6----
2024-04-14 12:36 pm SW 11.1 15.9----29.96-- 53.6----
2024-04-14 12:30 pmWSW 13.0 19.0----29.96-- 53.6----
2024-04-14 12:24 pmSSW 8.9 15.0----29.96-- 53.4----
2024-04-14 12:18 pm SW 7.0 15.9----29.96- 70.3 53.1----
2024-04-14 12:12 pmWSW 8.9 15.9----29.97- 70.0 53.1----
2024-04-14 12:06 pmWSW 7.0 17.1----29.97- 69.4 53.1----
2024-04-14 12:00 pmWSW 9.9 15.0----29.98-0.08 69.1 53.1----
2024-04-14 11:54 amWSW 6.0 17.1----29.98- 69.3 52.9----
2024-04-14 11:48 am W 13.0 21.0----29.98- 68.0 52.9----
2024-04-14 11:42 am W 14.0 18.1----29.99- 68.0 52.9----
2024-04-14 11:36 am SW 8.9 17.1----29.99- 68.0 52.9----
2024-04-14 11:30 amWSW 8.0 17.1----30.00-- 52.9----
2024-04-14 11:24 amWSW 6.0 14.0----30.00-- 52.9----
2024-04-14 11:18 am SW 8.9 17.1----30.00-- 53.1----
2024-04-14 11:12 am SW 5.1 15.0----30.01-- 52.9----
2024-04-14 11:06 amWSW 8.9 17.1----30.01-- 52.9----
2024-04-14 11:00 am SW 8.0 19.0----30.01-0.04 66.6 52.9----
2024-04-14 10:54 am W 11.1 15.0----30.01- 66.7 52.9----
2024-04-14 10:48 amSSW 7.0 15.9----30.01- 66.6 52.9----
2024-04-14 10:42 amWSW 8.9 15.9----30.01- 66.0 52.9----
2024-04-14 10:36 amWSW 8.9 15.0----30.01- 66.0 52.9----
2024-04-14 10:30 amWSW 11.1 15.0----30.01- 65.3 52.9----
2024-04-14 10:24 amWSW 7.0 12.0----30.02- 65.3 52.9----
2024-04-14 10:18 amWSW 6.0 11.1----30.02- 64.9 52.9----
2024-04-14 10:12 am SW 8.0 9.9----30.02- 64.4 52.9----
2024-04-14 10:06 am SW 8.9 12.0----30.02- 64.0 52.9----
2024-04-14 10:00 amWSW 6.0 13.0----30.03-0.01- 52.9----
2024-04-14 09:54 am SW 8.0 12.0----30.03-- 52.9----
2024-04-14 09:48 am SW 8.0 11.1----30.03- 63.3 52.9----
2024-04-14 09:42 amWSW 7.0 13.0----30.03- 62.8 52.9----
2024-04-14 09:36 amWSW 8.9 13.0----30.03- 62.6 52.9----
2024-04-14 09:30 amWSW 9.9 14.0----30.04-- 52.9----
2024-04-14 09:24 amWSW 8.9 13.0----30.04-- 52.9----
2024-04-14 09:18 am SW 7.0 12.0----30.04- 61.5 52.9----
2024-04-14 09:12 am SW 8.0 11.1----30.05- 61.0 52.9----
2024-04-14 09:06 am SW 6.0 12.0----30.05- 61.0 52.9----
2024-04-14 09:00 amWSW 7.0 9.9----30.05- 60.4 52.7----
2024-04-14 08:54 amWSW 5.1 9.9----30.06- 60.6 52.7----
2024-04-14 08:48 am-------30.06- 60.3 52.7----
2024-04-14 08:42 am-------30.06- 60.4 52.7----
2024-04-14 08:36 am-------30.06- 59.9 52.7----
2024-04-14 08:30 amWSW 5.1 8.9----30.06-- 52.7----
2024-04-14 08:24 amWSW 5.1 9.9----30.06-- 52.7----
2024-04-14 08:18 am SW 6.0 8.9----30.06- 57.7 52.9----
2024-04-14 08:12 am SW 6.0 11.1----30.05- 57.0 52.9----
2024-04-14 08:06 am SW 7.0 9.9----30.05- 56.3 52.9----
2024-04-14 08:00 am SW 6.0 9.9----30.05+0.03- 52.9----
2024-04-14 07:54 am SW 6.0 11.1----30.05-- 52.9----
2024-04-14 07:48 am SW 7.0 8.9----30.05-- 53.1----
2024-04-14 07:42 am SW 6.0 8.9----30.04-- 53.1----
2024-04-14 07:36 am SW 6.0 9.9----30.04-- 53.1----
2024-04-14 07:30 am SW 5.1 8.9----30.04- 52.2 53.1----
2024-04-14 07:24 am SW 6.0 8.0----30.05- 51.6 53.1----
2024-04-14 07:18 am SW 5.1 8.0----30.04-------
2024-04-14 07:12 am SW 5.1 8.0----30.04-------
2024-04-14 07:06 am SW 5.1 7.0----30.04-------
2024-04-14 07:00 am SW 5.1 7.0----30.04+0.03 50.2 52.9----
2024-04-14 06:54 amSSW 5.1 7.0----30.04- 50.2 52.9----
2024-04-14 06:48 amSSW 5.1 6.0----30.03-- 52.9----
2024-04-14 06:42 amSSW 5.1 6.0----30.03-- 52.9----
2024-04-14 06:36 amSSW 5.1 7.0----30.03-- 52.9----
2024-04-14 06:30 amSSW 5.1 7.0----30.03- 49.8 52.9----
2024-04-14 06:24 amSSW 6.0 7.0----30.03- 49.6 52.9----
2024-04-14 06:18 amSSW 5.1 7.0----30.03- 49.8 52.9----
2024-04-14 06:12 amSSW 5.1 7.0----30.03- 49.6 52.9----
2024-04-14 06:06 am SW 6.0 7.0----30.03- 50.2 52.9----
2024-04-14 06:00 am SW 6.0 7.0------ 50.2-----
2024-04-14 05:54 am SW 6.0 8.0------ 50.4-----
2024-04-14 05:48 am SW 7.0 8.0------ 50.5 52.9----
2024-04-14 05:42 am SW 7.0 8.9------ 50.7 52.9----
2024-04-14 05:36 am SW 7.0 8.9------ 50.9 52.9----
2024-04-14 05:30 am SW 6.0 8.0----30.03-- 52.7----
2024-04-14 05:24 am SW 6.0 8.0----30.03-- 52.7----
2024-04-14 05:18 am SW 6.0 8.0----30.03- 50.7 52.7----
2024-04-14 05:12 am SW 6.0 8.9----30.02- 50.7 52.7----
2024-04-14 05:06 am SW 6.0 8.0----30.02- 50.7 52.7----
2024-04-14 05:00 am SW 7.0 8.0----30.02+0.02 50.9 52.7----
2024-04-14 04:54 am SW 6.0 8.0----30.02- 50.7 52.7----
2024-04-14 04:48 am SW 6.0 8.0----30.02- 50.9 52.7----
2024-04-14 04:42 am SW 7.0 8.0----30.02- 51.3 52.7----
2024-04-14 04:36 am SW 7.0 8.0----30.02- 51.4 52.7----
2024-04-14 04:30 am SW 6.0 7.0----30.02- 51.6 52.7----
2024-04-14 04:24 am SW 6.0 7.0----30.02- 51.8 52.7----
2024-04-14 04:18 am SW 5.1 7.0----30.02- 52.0 52.7----
2024-04-14 04:12 am SW 6.0 8.0----30.02- 52.3 52.9----
2024-04-14 04:06 amWSW 6.0 7.0----30.02- 53.2 52.9----
2024-04-14 04:00 amWSW 6.0 7.0----30.01+0.01 54.0 52.9----
2024-04-14 03:54 am SW 5.1 8.0----30.01- 54.0 53.1----
2024-04-14 03:48 amWSW 6.0 8.0----30.01- 55.2 53.1----
2024-04-14 03:42 amWSW 5.1 7.0----30.01- 55.2 53.1----
2024-04-14 03:36 am W 6.0 7.0----30.01- 55.4 53.1----
2024-04-14 03:30 am W 6.0 8.0----30.01- 55.8 53.1----
2024-04-14 03:24 am W 7.0 8.9----30.01- 55.8 53.1----
2024-04-14 03:18 am W 7.0 8.9----30.01- 55.8 53.1----
2024-04-14 03:12 am W 7.0 9.9----30.01- 55.8 53.1----
2024-04-14 03:06 am W 8.0 8.9----30.01- 55.9 53.1----
2024-04-14 03:00 am W 8.0 8.9----30.00+0.02 55.6 53.1----
2024-04-14 02:54 amWNW 8.0 9.9----30.00- 56.1 53.1----
2024-04-14 02:48 am W 8.0 11.1----30.00- 56.1 53.1----
2024-04-14 02:42 am W 8.9 9.9----30.00- 55.9 53.1----
2024-04-14 02:36 am W 8.9 9.9----30.00- 55.8 52.9----
2024-04-14 02:30 am W 8.9 9.9----30.00- 55.8 52.9----
2024-04-14 02:24 am W 8.9 9.9----30.00- 55.8 52.9----
2024-04-14 02:18 am W 8.9 9.9----30.00- 55.8 52.9----
2024-04-14 02:12 am W 8.0 9.9----30.00- 55.4 52.9----
2024-04-14 02:06 am W 6.0 7.0----30.00- 54.7 52.9----
2024-04-14 02:00 am W 6.0 7.0----30.00+0.04 54.5 52.9----
2024-04-14 01:54 am W 5.1 6.0----30.00- 54.1 52.9----